BREEZE-M DEB, 41321

Orbit data source: Space-Track

BREEZE-M DEB, 41321 is space debris in HEO originally from a launch on Thu, 17 May 2012 UTC launched from the Tyuratam Missile And Space Complex (TTMTR). Debris objects in space refer to the collection of defunct objects orbiting the Earth. Examples of debris include non-operational satellites, rocket bodies, and fragments generated from explosions, collisions, or faulty payload assembly.

Loading next visibility...
Identifier
41321, 2012-026H
Orbit
HEO
Last TLE update
4 months ago
Origin
Manufacturer
Khrunichev
Mission
Spacecraft
Bus & Motor
Unknown
Mass
Unknown
Launch date (UTC)
2012-05-17 (13 years ago)
Launch vehicle
Unknown
Launch site
Tyuratam Missile And Space Complex (TTMTR)
Object type
Payload
Rocket body
Debris
Shape & HBR
Unknown
Radar Cross Section
Medium (>0.1 m² and <1 m²)

Expand to show TLE details & history

TLE from 4 months ago
0 BREEZE-M DEB
1 41321U 12026H   25052.13430397 -.00000104  00000-0  00000-0 0  9992
2 41321   9.9005 178.1296 4129513 329.9597  11.5972  1.77123013 59216
Epoch: 2025-02-21T03:13Z
TLE epoch observation values (Epoch: 2025-02-21T03:13:23.862Z)
Latitude
-0.00007°
Longitude
-21.6106°
Altitude
11,227.078 km
Speed
5.61 km/s
True Right ascension
11h 52m 09s
True Declination
0° 00' 00"
Sunlit
Object was in daylight at epoch
Visualization orbit readout
Latitude
-1.08065°
Longitude
153.50898°
Altitude
33,282.475 km
Speed
2.507 km/s
Apparent Right ascension
23h 18m 25s
Apparent Declination
-7° 45' 49"
Sunlit
Object is in daylight
Visualization observer readout
Local Sidereal Time
01:18:49
Azimuth
217.244° SW
Elevation
34.805°
Doppler factor
1
Orbital elements
Apogee altitude
34,395.085 km
Perigee altitude
10,562.197 km
Semi-major axis
28,856.778 km
Eccentricity
0.41295
Inclination
9.9005°
RAAN
178.1296°
Arg. of periapsis
329.9597°
True anomaly
Unknown
Mean anomaly
11.5972°
Eccentric anomaly
Unknown
Mean motion
0.44276 °/min
Orbital period
813.08 mins
BSTAR
0
Loading maneuver chart data...
Loading SW <> Apogee altitude chart data...
Loading historical data...
Loading historical data...
Loading historical data...
Loading historical data...
Loading historical data...
Loading historical data...
Loading historical data...

BREEZE-M DEB Visibility forecast

Observer location: undefined°, undefined°

Span
Click to sort rows by Start time (UTC) header in descending order
Start Az.
Max El. time (UTC)
Max El. Az.
Max El.
End time (UTC)
End Az.
314 mins2025-07-03 13:31:59.362Z217.232° SW2025-07-03 13:31:59.362Z217.232° SW29.709°2025-07-03 18:45:59.362Z130.054° SE
123 mins2025-07-04 11:28:59.362Z263.409° W2025-07-04 12:42:59.362Z259.114° W13.107°2025-07-04 13:31:59.362Z258.185° W
|